Location: Zagreb
(45.8000°N, 16.0000°E)
Time: 17:23:53
(UTC+02:00)

Courier 1B Rocket - Pass Details

Date: 11 August 2022
Orbit: 920 x 1202 km, 28.2° (Epoch: 28 September)

Event Time Altitude Azimuth Distance (km) Brightness Sun altitude
Rises 18:26:49 0° 230° (SW) 3,563 8.7 16.7°
Reaches altitude 10° 18:30:32 10° 208° (SSW) 2,648 7.7 16.1°
Maximum altitude 18:34:05 15° 174° (S) 2,309 6.9 15.5°
Drops below altitude 10° 18:37:44 10° 140° (SE) 2,734 7.0 14.8°
Sets 18:41:39 0° 119° (ESE) 3,742 7.5 14.1°
